Regional Weather Roundup
Issued by NWS Upton, NY

Current Version | Previous Version | Graphics & Text | Print | Product List | Glossary Off
Versions: 1 2 3 4 5 6 7 8 9 10 11 12 13 14 15 16 17 18 19 20 21 22 23 24 25 26 27 28 29 30 31 32 33 34 35 36 37 38 39 40 41 42 43 44 45 46 47 48 49 50

000
ASUS41 KOKX 230809
RWROKX

REGIONAL WEATHER ROUNDUP
NATIONAL WEATHER SERVICE NEW YORK NY
400 AM EDT SAT SEP 23 2017

NOTE: "FAIR" INDICATES FEW OR NO CLOUDS BELOW 12,000 FEET WITH NO
SIGNIFICANT WEATHER AND/OR OBSTRUCTIONS TO VISIBILITY.

NYZ071-072-176-178-NJZ106-104-230900-
NEW YORK CITY METRO AREA

CITY           SKY/WX    TMP DP  RH WIND       PRES   REMARKS
Central Park   CLEAR     70  55  59 VRB3      30.01S
Bronx Bot Gard   N/A     68  54  60 E2        29.98F
LaGuardia APRT PTCLDY    72  57  59 N13       29.97S
Kennedy INTL   PTCLDY    71  55  56 N17       29.97S
Breezy Point     N/A     72 N/A N/A N10G16      N/A
Newark/Liberty PTCLDY    71  52  50 NW10      29.98S
Teterboro      CLEAR     68  53  58 NW9       29.98S
$$

NYZ177-179-078>081-230900-
LONG ISLAND NEW YORK

CITY           SKY/WX    TMP DP  RH WIND       PRES   REMARKS
Jones Beach      N/A     68 N/A N/A N9          N/A
Matinecock PT    N/A     70 N/A N/A NE10        N/A
Farmingdale    CLEAR     69  57  65 N14       29.96R
MacArthur/ISP  CLOUDY    69  56  62 N16G23    29.94S
Shirley        CLOUDY    71  58  63 N20G26    29.94S
Mt Sinai Harb    N/A    N/A N/A N/A N20G25      N/A
Westhampton    CLOUDY    68  57  68 N17G24    29.94S
East Hampton   CLOUDY    65  60  82 N9G20     29.92S
Montauk          N/A     66  63  90 N14G23    29.93R
$$

NYZ052-065-067-230900-
HUDSON VALLEY

CITY           SKY/WX    TMP DP  RH WIND       PRES   REMARKS
White Plains   CLEAR     68  52  56 N10       29.98S
Larchmont Harb   N/A     70 N/A N/A N6          N/A
Croton On Huds   N/A     66 N/A N/A N1G7        N/A
Newburgh       NOT AVBL
Montgomery     MOCLDY    58  53  84 CALM      30.03S
Poughkeepsie   PTCLDY    63  52  67 W3        30.01F
Albany         CLEAR     57  51  80 CALM      30.06R
$$

NJZ001-105-106-008-010-013-015-019>022-104-230900-
NEW JERSEY

CITY           SKY/WX    TMP DP  RH WIND       PRES   REMARKS
Newark/Liberty PTCLDY    71  52  50 NW10      29.98S
Teterboro      CLEAR     68  53  58 NW9       29.98S
Caldwell       PTCLDY    66  54  65 CALM      30.01S
Somerville     NOT AVBL
Linden         FAIR      69  51  51 N7        29.99S
Perth Amboy      N/A     70 N/A N/A NW10        N/A
Sussex         CLEAR     56  56 100 CALM      30.04S
Andover          N/A     57  56  96 CALM      30.04S
Trenton        CLEAR     66  56  70 N6        30.00S
Millville      CLEAR     67  59  75 N5        29.99S
Atlantic City  CLEAR     67  58  72 N9        29.98S
Wrightstown    CLOUDY    65  55  70 NW7       29.97R
Toms River     PTCLDY    66  55  67 NW7       29.99R
Belmar         PTCLDY    67  58  72 NW6       29.99R
$$

PAZ047>061-062-071-230900-
EASTERN PENNSYLVANIA

CITY           SKY/WX    TMP DP  RH WIND       PRES   REMARKS
Philadelphia   PTCLDY    69  52  54 N6        30.01R
Allentown      CLEAR     62  52  69 W5        30.03S
Scranton       PTCLDY    55  51  86 CALM      30.08R
$$

CTZ002-004>006-009-010-012-RIZ004-006-007-MAZ004-011-015-230900-
SOUTHERN NEW ENGLAND
 IN CT

CITY           SKY/WX    TMP DP  RH WIND       PRES   REMARKS
Bradley INTL   CLOUDY    69  50  50 N10       30.00S
Hartford       CLOUDY    69  52  54 N10       29.98F
Danbury        MOCLDY    69  53  56 N6        30.01S
Wtrbury/Oxford CLOUDY    67  54  63 N15       30.00F
Norwalk Harbor   N/A     68 N/A N/A N9G15       N/A
Bridgeport     CLEAR     70  54  56 N12       29.96S
Meriden        CLOUDY    69  51  52 N7        29.98S
New Haven      PTCLDY    69  52  54 N13G23    29.97R
Chester        CLOUDY    66  55  68 N13G18    29.96F
Groton         MOCLDY    66  58  75 N15G24    29.92S
Wilimantic     CLOUDY    68  56  65 N9        29.98S

 IN RI

CITY           SKY/WX    TMP DP  RH WIND       PRES   REMARKS
Providence     CLOUDY    63  62  97 N16G25    29.96S
Block Island   CLOUDY    63  61  93 N13G25    29.91R
Westerly       CLOUDY    65  61  87 N14G25    29.93S
 IN MA

CITY           SKY/WX    TMP DP  RH WIND       PRES   REMARKS
Boston         LGT RAIN  61  59  93 N20       29.99F
Worcester      CLOUDY    63  48  58 N15G25    30.02S
Westfield      CLOUDY    68  50  52 N7        30.01S
Provincetown   FOG       59  59 100 NE17G24   29.94F VSB 1/2
Nantucket      CLOUDY    62  62 100 NE18      29.85R FOG
$$

ANZ330-335-338-340-345-350-353-355-230900-
COASTAL MARINE OBSERVATIONS


STATION/POSITION TIME  SKY/WX   TEMP    WIND        PRES    VSBY  WAVE
                                AIR SEA DIR/SP/G                  HT/PER
                 (UTC)          (F)     (DEG/KT/KT) (MB)    (MI)  (FT/S)
NY HARB ENTRANCE 0650            71 70  350/ 14/ 16 1013.7          4/ 8
20 S FIRE ISLAND 0650            68 67  360/ 16/ 19 1013.3          6/ 7
GREAT SOUTH BAY  0730            69 69  360/ 17/ 21   N/A
23 SSW MONTAUK P 0750            65 65              1012.1          6/ 7
15 E BARNEGAT LI 0730               69                N/A           6/ 4
HUDSON CANYON    0650            66 69  360/ 21/ 25 1011.2          8/ 8
KINGS POINT      0748            71 71   40/ 13/ 15 1015.7
EXECUTION ROCKS  0745            71      30/  8/ 12   N/A
WESTERN LI SOUND NOT AVBL
CENTRAL LI SOUND 0730            69     360/ 19/ 25   N/A           2
EASTERN LI SOUND NOT AVBL
ROBBINS REEF     0748            72     340/ 10/ 15 1015.7
$$


>>>>>>>>>>>>>>>>>>>>>>>>>>>> KEY <<<<<<<<<<<<<<<<<<<<<<<<<<<
>                                                          <
>     SKY/WX - Sky Condition/Present Weather               <
>     TMP    - Temperature in Fahrenheit                   <
>     DP     - Dew Point in Fahrenheit                     <
>     RH     - Relative Humidity in Percent                <
>     WIND   - Direction (from) and Speed in MPH           <
>     PRES   - Mean Sea Level Pressure (inches of Hg)      <
>     WCI    - Wind Chill Index                            <
>     VSB    - VISIBILITY IN MILES                         <
>     HX     - HEAT INDEX                                  <
>     TC     - TEMPERATURE IN CELSIUS                      <
>     VRB    - VARIABLE WIND DIRECTION                     <
>                                                          <
>>>>>>>>>>>>>>>>>>>>>>>>>>>> KEY <<<<<<<<<<<<<<<<<<<<<<<<<<<



USA.gov is the U.S. government's official web portal to all federal, state and local government web resources and services.